Terminal Aerodrome Forecast
Issued by NWS Columbia, SC

Home | Current Version | Previous Version | Text Only | Print | Product List | Glossary On
Versions: 1 2 3 4 5 6 7 8 9 10 11 12 13 14 15 16 17 18 19 20 21 22 23 24 25 26 27 28 29 30 31 32 33 34 35 36 37 38 39 40 41
000
FTUS42 KCAE 252034 AAA
TAFAGS
TAF AMD
KAGS 252034Z 2521/2618 VRB05KT P6SM SCT070
     FM260100 VRB03KT P6SM SKC
     FM260800 00000KT 3SM BR SCT001
     FM261300 VRB05KT P6SM SCT250=

USA.gov is the U.S. government's official web portal to all federal, state and local government web resources and services.